sat.trackr.live / text

‹ back to catalog

STARLINK-30892

NORAD 58366 · 2023-177R

PAYLOAD ACTIVE UNKNOWN

§ Identity

Operator
Country
US
Launch date
2023-11-18
Launch site
AFETR
Launch vehicle
Mass (kg)
RCS (m²)

Purposes: comms

External: N2YO · Heavens-Above · Gunter

§ Orbital elements

Epoch: 2026-09-20T15:37:09.427584Z

Period
94.27 min
Inclination
43.0064°
Eccentricity
0.0001983
Mean motion
15.27578661 rev/d
Perigee alt
481.7 km
Apogee alt
484.4 km
Semi-major
6,861.2 km
B*
1.4502e-5
RAAN
329.6173°
Arg perigee
285.5243°
Mean anomaly
74.5390°
Rev number
15,805

§ Raw data

STARLINK-308921 58366U 23177R   26263.65080356  .00000137  00000+0  14502-4 0  99962 58366  43.0064 329.6173 0001983 285.5243  74.5390 15.27578661158053

JSON: /api/v1/satellites/58366 · /tle

For live sub-satellite position, see the globe view (requires WebGL).

§ Visibility from observer

Set your observer location to see the next 7 days of passes ≥ 10°. The values pass through the URL so the page stays shareable.

No JS? Fill the form by hand. The geolocation button needs JavaScript.